This demonstration page uses our WeatherBlox Daily Observations layout. Learn more.

Left ArrowRight Arrow

Hourly Observations for June 5, 2017

Temp ( °F °C ) Dew Point ( °F °C ) Humidity (%) Winds ( mph kmh ) Pressure ( in mb ) Visibility ( mi km ) Precip ( " mm )
12:52 am 00:52 Partly Cloudy 69 20.6 68 20 96 96 NNE 3 6 29.79 1009 9 14 0.00 0.00
1:04 am 01:04 Mostly Cloudy 69 20.6 68 20 96 96 NNE 3 6 29.80 1009 9 14 0.00 0.00
1:29 am 01:29 Partly Cloudy 69 20.6 68 20 96 96 Calm 29.80 1009 9 14 0.00 0.00
1:52 am 01:52 Mostly Clear 69 20.6 68 20 96 96 Calm 29.77 1008 10 16 0.00 0.00
2:52 am 02:52 Mostly Clear 68 20 67 19.4 96 96 Calm 29.77 1008 7 11 0.00 0.00
3:52 am 03:52 Mostly Cloudy 68 20 67 19.4 96 96 Calm 29.77 1008 9 14 0.00 0.00
4:52 am 04:52 Cloudy 68 20 67 19.4 96 96 NNE 5 7 29.78 1009 8 13 0.00 0.00
5:25 am 05:25 Cloudy 68 20 67 19.4 96 96 N 5 7 29.80 1009 8 13 0.00 0.00
5:52 am 05:52 Cloudy 68 20 67 19.4 96 96 Calm 29.80 1009 10 16 0.00 0.00
6:52 am 06:52 Mostly Cloudy 68 20 67 19.4 96 96 Calm 29.81 1009 8 13 0.00 0.00
7:24 am 07:24 Mostly Cloudy 69 20.6 68 20 96 96 N 3 6 29.80 1009 8 13 0.00 0.00
7:36 am 07:36 Mostly Cloudy 69 20.6 68 20 96 96 N 3 6 29.80 1009 8 13 0.00 0.00
7:52 am 07:52 Mostly Cloudy 70 21.1 68 20 93 93 NNE 3 6 29.82 1010 9 14 0.00 0.00
8:28 am 08:28 Mostly Cloudy 71 21.7 69 20.6 94 94 NE 5 7 29.80 1009 10 16 0.00 0.00
8:52 am 08:52 Mostly Sunny 73 22.8 69 20.6 87 87 NNE 5 7 29.82 1010 10 16 0.00 0.00
9:52 am 09:52 Mostly Sunny 76 24.4 70 21.1 82 82 N 9 15 29.82 1010 10 16 0.00 0.00
10:52 am 10:52 Partly Cloudy 76 24.4 69 20.6 79 79 N 9 15 29.81 1010 10 16 0.00 0.00
11:17 am 11:17 Mostly Cloudy 79 26.1 70 21.1 74 74 NE 9 15 29.80 1009 10 16 0.00 0.00
11:45 am 11:45 Partly Cloudy 80 26.7 70 21.1 71 71 NNE 10 17 29.80 1009 10 16 0.00 0.00
11:52 am 11:52 Mostly Cloudy 80 26.7 69 20.6 69 69 N 9 15 29.81 1010 10 16 0.00 0.00
12:17 pm 12:17 Mostly Cloudy 80 26.7 70 21.1 71 71 NNE 9 15 29.80 1009 10 16 0.00 0.00
12:52 pm 12:52 Partly Cloudy 82 27.8 70 21.1 67 67 NNE 12 19 29.80 1009 10 16 0.00 0.00
1:52 pm 13:52 Mostly Sunny 84 28.9 68 20 59 59 NE 15 24 29.79 1009 10 16 0.00 0.00
2:52 pm 14:52 Mostly Sunny 85 29.4 66 18.9 53 53 NE 12 19 29.78 1009 10 16 0.00 0.00
3:52 pm 15:52 Mostly Sunny 85 29.4 67 19.4 55 55 ENE 8 13 29.77 1008 10 16 0.00 0.00
4:52 pm 16:52 Mostly Sunny 86 30 66 18.9 51 51 NE 13 20 29.76 1008 10 16 0.00 0.00
5:52 pm 17:52 Sunny 85 29.4 63 17.2 48 48 NE 9 15 29.77 1008 10 16 0.00 0.00
6:52 pm 18:52 Sunny 83 28.3 63 17.2 51 51 NE 7 11 29.78 1008 10 16 0.00 0.00
7:52 pm 19:52 Sunny 83 28.3 64 17.8 53 53 E 5 7 29.78 1009 10 16 0.00 0.00
8:36 pm 20:36 Clear with Nearby Thunderstorms 78 25.6 66 18.9 67 67 N 6 9 29.77 1008 10 16 0.00 0.00
8:52 pm 20:52 Partly Cloudy 78 25.6 65 18.3 64 64 E 10 17 29.80 1009 10 16 0.00 0.00
9:52 pm 21:52 Clear 74 23.3 64 17.8 71 71 NNE 3 6 29.82 1010 10 16 0.00 0.00
10:52 pm 22:52 Clear 69 20.6 64 17.8 84 84 Calm 29.84 1010 10 16 0.00 0.00
11:52 pm 23:52 Clear 68 20 64 17.8 87 87 Calm 29.83 1010 10 16 0.00 0.00

Powered by AerisWeather